Total_Precipitation_Accumulation
2.16 2.21 2.07 2.02 1.95 1.95 1.97 1.93 1.91 1.91 1.88 1.90 2.04 2.11 2.08 2.11 2.22 2.33 2.15 2.24 2.24 2.27 2.28 2.40 2.46 2.66 2.67 2.60 2.73 2.78 2.83 2.87 2.49 1.98 1.99 2.13 2.16 2.00 2.00 1.93 1.91 1.93 1.84
1.88 1.92 1.91 1.91 1.89 1.81 1.77 1.85 1.92 1.84 1.75 1.80 1.87 1.87 1.79 1.91 2.10 2.14 2.04 2.13 2.19 2.18 2.36 2.62 2.55 2.66 2.74 2.79 2.97 2.77 2.81 3.10 2.95 2.51 2.40 2.51 2.41 2.24 2.19 2.08 1.80 1.70 1.70
1.58 1.64 1.66 1.67 1.64 1.62 1.64 1.69 1.77 1.79 1.79 1.79 1.78 1.73 1.72 1.79 1.91 1.91 2.07 2.21 2.24 2.33 2.52 2.63 2.72 3.00 2.84 2.89 2.92 2.82 2.84 3.06 3.24 2.92 2.63 2.75 2.65 2.41 2.42 2.12 1.94 2.00 1.74
1.47 1.54 1.70 1.78 1.82 1.82 1.76 1.80 1.90 1.99 1.92 1.94 1.95 1.98 2.00 1.98 2.01 2.10 2.23 2.33 2.40 2.47 2.64 2.70 2.76 2.88 2.96 3.15 3.14 3.20 3.33 3.48 3.59 3.34 3.07 3.09 3.08 2.98 2.83 2.40 2.28 2.18 2.00
1.72 1.79 1.99 2.17 2.22 2.12 2.08 2.15 2.17 2.22 2.15 2.31 2.33 2.36 2.46 2.43 2.23 2.41 2.49 2.49 2.72 2.71 2.76 2.72 2.70 2.88 3.02 3.19 3.02 3.20 3.56 3.70 3.77 3.74 3.59 3.71 3.59 3.49 3.09 2.72 2.60 2.46 2.25
1.60 1.76 1.99 2.20 2.32 2.30 2.34 2.49 2.50 2.45 2.56 2.69 2.65 2.64 2.62 2.31 2.50 2.66 2.67 2.77 2.88 2.85 2.81 2.84 2.77 2.77 2.72 2.76 2.80 2.93 3.20 3.36 3.52 3.70 3.75 3.78 3.72 3.63 3.46 3.17 2.82 2.55 2.28
1.91 2.10 2.18 2.33 2.50 2.50 2.45 2.49 2.53 2.57 2.57 2.65 2.66 2.72 2.56 2.53 2.66 2.51 2.56 2.54 2.63 2.74 2.80 2.84 2.58 2.41 2.57 2.42 2.59 2.71 2.68 2.71 2.80 3.07 3.21 3.18 3.44 3.63 3.62 3.15 2.81 2.52 2.25
1.86 2.03 2.16 2.36 2.50 2.57 2.65 2.64 2.72 2.84 2.86 2.86 2.84 2.83 2.76 2.62 2.63 2.42 2.52 2.40 2.40 2.45 2.52 2.57 2.53 2.42 2.42 2.55 2.56 2.43 2.17 2.10 2.24 2.23 2.24 2.47 2.85 3.28 3.44 3.26 3.22 2.90 2.50
2.27 2.43 2.52 2.56 2.65 2.70 2.73 2.87 2.99 3.11 3.10 3.11 3.07 3.03 2.98 2.98 2.97 2.66 2.58 2.36 2.40 2.41 2.48 2.50 2.46 2.29 2.46 2.43 2.34 2.26 2.09 1.91 1.94 2.01 2.04 2.24 2.56 2.85 3.14 3.19 3.08 2.98 2.59
2.71 2.82 2.89 2.93 2.94 2.89 2.88 2.99 3.06 3.11 3.12 3.13 3.04 3.06 2.99 2.97 3.10 2.84 2.64 2.37 2.39 2.43 2.53 2.55 2.56 2.36 2.43 2.37 2.25 2.24 2.08 1.96 1.99 1.96 1.98 2.01 2.05 2.38 2.78 2.76 2.78 2.85 2.62
2.95 2.99 3.03 3.10 3.22 3.32 3.36 3.17 3.02 3.01 3.08 3.17 3.14 3.18 3.17 3.11 3.11 2.73 2.58 2.45 2.46 2.48 2.43 2.40 2.46 2.52 2.26 2.10 2.01 1.96 2.02 2.13 2.15 2.03 1.94 1.90 1.95 2.05 2.26 2.35 2.44 2.54 2.48
2.89 3.00 3.06 3.07 2.98 2.99 3.24 3.29 3.24 3.15 3.05 3.07 3.14 3.07 2.98 2.92 2.76 2.43 2.21 2.20 2.27 2.27 2.28 2.30 2.36 2.38 2.11 1.89 1.68 1.62 1.72 1.76 1.83 1.89 1.82 1.76 1.77 1.81 1.99 2.30 2.47 2.51 2.44
2.70 2.82 3.00 3.08 3.12 3.07 3.04 3.13 3.13 3.07 2.91 2.73 2.76 2.80 2.79 2.79 2.65 2.34 2.04 1.95 1.98 1.91 2.00 2.25 2.30 2.14 1.95 1.80 1.70 1.65 1.57 1.47 1.57 1.68 1.59 1.58 1.66 1.79 2.02 2.33 2.56 2.75 2.68
2.71 2.74 2.80 2.88 2.93 2.99 3.07 3.02 2.98 2.98 2.92 2.74 2.72 2.75 2.75 2.69 2.47 2.18 2.01 1.91 1.88 1.83 1.94 2.16 2.25 2.21 2.04 1.90 1.79 1.63 1.45 1.42 1.46 1.53 1.60 1.62 1.74 1.85 1.95 2.09 2.40 2.61 2.70
2.49 2.44 2.51 2.68 2.77 2.83 2.97 3.03 2.87 2.76 2.79 2.68 2.72 2.88 2.80 2.55 2.35 2.19 1.94 1.87 1.87 1.97 2.04 2.11 2.25 2.29 2.22 2.10 1.93 1.79 1.66 1.55 1.47 1.45 1.56 1.59 1.65 1.69 1.69 1.76 2.02 2.21 2.22
2.45 2.45 2.44 2.49 2.63 2.72 2.68 2.75 2.77 2.52 2.46 2.31 2.34 2.41 2.42 2.29 2.18 2.10 1.97 1.92 1.90 1.93 1.90 1.95 2.21 2.26 2.28 2.24 2.11 1.92 1.77 1.67 1.60 1.58 1.61 1.59 1.60 1.68 1.73 1.77 1.88 2.04 2.07
2.53 2.63 2.58 2.39 2.34 2.39 2.40 2.38 2.39 2.30 2.04 1.89 1.85 1.81 1.76 1.77 1.79 1.87 1.91 1.89 1.84 1.71 1.55 1.68 1.97 2.16 2.24 2.24 2.14 1.93 1.76 1.77 1.86 1.80 1.73 1.68 1.67 1.70 1.81 1.86 1.92 2.04 2.10
2.18 2.26 2.25 2.13 2.06 2.03 2.05 2.04 1.94 1.95 1.89 1.73 1.66 1.61 1.60 1.60 1.66 1.87 2.02 1.83 1.66 1.57 1.44 1.57 1.81 2.07 2.18 2.23 2.21 2.13 1.99 1.96 1.99 1.95 1.89 1.83 1.80 1.81 1.82 1.84 1.87 1.94 1.99
1.99 2.01 1.93 1.94 1.99 2.03 2.11 2.14 2.05 1.96 1.97 1.92 1.78 1.61 1.64 1.63 1.71 2.00 2.09 1.67 1.54 1.59 1.62 1.63 1.72 1.91 2.09 2.20 2.22 2.21 2.16 2.14 2.15 2.17 2.09 2.04 1.98 1.97 1.91 1.83 1.84 1.96 1.97
1.89 2.04 1.98 1.85 1.88 2.05 2.18 2.16 2.19 2.24 2.17 2.21 2.17 1.87 1.70 1.63 1.56 1.81 1.94 1.79 1.73 1.72 1.70 1.70 1.76 1.89 2.07 2.22 2.26 2.24 2.28 2.24 2.22 2.19 2.12 2.07 2.01 1.99 1.98 1.94 1.96 2.02 1.97
1.84 1.89 1.93 1.84 1.87 1.99 2.10 2.19 2.18 2.21 2.28 2.29 2.24 2.04 1.84 1.60 1.64 1.84 2.04 2.00 1.92 1.91 1.89 1.87 1.92 2.05 2.14 2.20 2.17 2.08 2.07 2.12 2.10 2.06 2.04 2.02 1.98 1.94 1.95 2.00 2.00 2.06 2.05
1.83 1.83 1.85 1.90 1.95 2.00 2.03 2.16 2.32 2.35 2.35 2.39 2.24 2.13 2.04 1.78 1.75 1.88 2.00 2.02 2.01 1.99 1.95 1.97 2.04 2.12 2.17 2.18 2.14 2.08 2.04 2.04 2.03 2.02 2.04 2.05 2.06 2.04 2.06 2.05 2.06 2.13 2.14
1.62 1.70 1.82 1.88 1.90 1.93 1.97 2.03 2.12 2.18 2.23 2.26 2.10 2.03 1.96 1.91 1.82 1.83 1.92 1.94 1.93 1.91 1.86 1.90 1.97 1.96 1.97 2.04 2.03 2.01 1.99 1.96 1.95 1.99 2.07 2.09 2.12 2.13 2.10 2.03 1.99 2.04 2.07
1.26 1.34 1.39 1.48 1.59 1.68 1.74 1.85 1.83 1.81 1.86 1.91 1.84 1.81 1.77 1.74 1.69 1.68 1.70 1.71 1.74 1.77 1.76 1.75 1.77 1.80 1.75 1.73 1.77 1.79 1.74 1.76 1.79 1.85 1.91 1.99 2.03 2.10 2.14 2.09 2.07 2.06 2.09
1.25 1.25 1.24 1.31 1.39 1.48 1.56 1.62 1.69 1.72 1.70 1.66 1.64 1.61 1.60 1.58 1.59 1.61 1.59 1.57 1.55 1.54 1.49 1.49 1.55 1.57 1.57 1.48 1.41 1.41 1.50 1.52 1.51 1.58 1.61 1.73 1.82 1.93 2.01 2.05 2.10 2.15 2.15
1.21 1.25 1.26 1.29 1.33 1.38 1.45 1.51 1.59 1.59 1.56 1.48 1.46 1.48 1.53 1.52 1.48 1.46 1.40 1.38 1.42 1.42 1.39 1.36 1.34 1.36 1.35 1.31 1.30 1.35 1.34 1.23 1.27 1.43 1.45 1.51 1.66 1.75 1.83 1.92 1.93 1.99 2.03